Location: Leuk
(46.3174°N, 7.6341°E)
Time: 21:36:33
(UTC+00:00)

CZ-4C R/B - Pass Details

Date: 09 March 2021
Orbit: 613 x 1389 km, 63.4° (Epoch: 21 April)

Event Time Altitude Azimuth Distance (km) Brightness Sun altitude
Exits shadow 04:10:11 23° 209° (SSW) 1,497 3.1 -18.6°
Maximum altitude 04:13:18 78° 126° (SE) 798 2.1 -18.1°
Drops below altitude 10° 04:19:11 10° 41° (NE) 2,589 5.5 -17.1°
Sets 04:21:59 0° 40° (NE) 3,664 6.4 -16.6°
